Regional Weather Roundup
Issued by NWS

Home | Current Version | Previous Version | Graphics & Text | Print | Product List | Glossary On
Versions: 1 2 3 4 5 6 7 8 9 10 11 12 13 14 15 16 17 18 19 20 21 22 23 24 25 26 27 28 29 30 31 32 33 34 35 36 37 38 39 40 41 42 43 44 45 46 47 48 49 50
487
ASUS45 KPSR 290310
RWRAZ

ARIZONA HOURLY REGIONAL WEATHER ROUNDUP
NATIONAL WEATHER SERVICE PHOENIX AZ
800 PM MST TUE MAR 28 2017

NOTE: FAIR INDICATES FEW OR NO CLOUDS BELOW 12,000 FEET WITH NO
SIGNIFICANT WEATHER AND/OR OBSTRUCTIONS TO VISIBILITY.

AZZ001>003-036-290400-
NORTHWEST ARIZONA

CITY           SKY/WX    TMP DP  RH WIND       PRES   REMARKS
BULLHEAD CITY  CLEAR     73  23  15 N14       29.94S
KINGMAN        CLEAR     54   5  14 NE5       30.03R
$$

AZZ004>008-015-016-018-290400-
NORTH CENTRAL ARIZONA

CITY           SKY/WX    TMP DP  RH WIND       PRES   REMARKS
GRAND CANYON   CLEAR     44  22  41 N5        30.05R
WILLIAMS       PTCLDY    43  21  42 NW13G20   30.06R
PRESCOTT       PTCLDY    50  24  36 NW12      29.99R
FLAGSTAFF      MOCLDY    43  25  49 NW5       30.04R
PAYSON         CLOUDY    52  32  46 NE12G22   30.01R
PAGE           PTCLDY    58  21  24 NW13      29.99R
$$

AZZ009>014-017-290400-
NORTHEAST ARIZONA

CITY           SKY/WX    TMP DP  RH WIND       PRES   REMARKS
WINSLOW        MOCLDY    52  28  39 NW9       29.95R
SAINT JOHNS    LGT RAIN  42  40  92 W5        29.93R
WINDOW ROCK    PTCLDY    41  32  70 N10       29.92R
SHOW LOW       CLOUDY    39  34  81 S6        29.99R WCI  35
$$

AZZ023-290400-
GREATER PHOENIX AREA

CITY           SKY/WX    TMP DP  RH WIND       PRES   REMARKS
PHOENIX        PTCLDY    73  30  20 W14       29.83R
BUCKEYE        CLEAR     70  25  18 W12       29.86R
GLENDALE       PTCLDY    73  28  19 W8        29.85R
LUKE AFB       CLEAR     73  28  18 W8        29.83R
DEER VALLEY    CLEAR     71  28  20 W13       29.84R
SCOTTSDALE     CLEAR     72  27  18 W9G18     29.86R
MESA-GATEWAY   PTCLDY    70  32  24 SW9       29.85R
CHANDLER       CLEAR     72  32  23 SW12      29.84R
$$

AZZ027-028-290400-
SOUTHWEST MARICOPA COUNTY AND PINAL COUNTY

CITY           SKY/WX    TMP DP  RH WIND       PRES   REMARKS
CASA GRANDE    NOT AVBL
GILA BEND      CLEAR     72  23  16 W5        29.87
$$

AZZ503-504-507>509-290400-
SOUTHEAST ARIZONA

CITY           SKY/WX    TMP DP  RH WIND       PRES   REMARKS
TUCSON         CLEAR     66  30  26 CALM      29.93R
DAVIS-MONTHAN  CLEAR     63  31  29 N12       29.92R
RYAN FIELD     CLEAR     64  32  29 CALM      29.92R
NOGALES        CLEAR     58  26  29 NW6       29.95R
SIERRA VISTA   CLEAR     50  26  39 W8        29.98R
DOUGLAS        CLEAR     52  26  36 NW12      29.94R
SAFFORD        PTCLDY    57  35  43 N8        29.87R
$$

AZZ020-021-025-026-031-290400-
SOUTHWEST ARIZONA

CITY           SKY/WX    TMP DP  RH WIND       PRES   REMARKS
YUMA           CLEAR     74  21  13 N7        29.89R
$$

CAZ031-033-041-043-047-048-061-290400-
SOUTHERN CALIFORNIA

CITY           SKY/WX    TMP DP  RH WIND       PRES   REMARKS
DOWNTOWN L.A.  CLEAR     69  50  50 CALM      29.95R
L.A. AIRPORT   PTCLDY    63  53  70 CALM      29.95S
SAN DIEGO      PTCLDY    65  46  50 W6        30.00R
BURBANK        CLEAR     70  36  28 S5        29.96R
ONTARIO        CLEAR     67  32  27 W3        29.97R
RIVERSIDE      CLEAR     68  34  28 VRB7      29.97R
PALM SPRINGS   CLEAR     76  13   9 W6        29.95R
EL CENTRO NAS  CLEAR     74  19  12 CALM      29.92R
IMPERIAL       CLEAR     70  34  26 W3        29.89S
BLYTHE         CLEAR     74  16  11 NW14      29.91R
NEEDLES        CLEAR     73  20  13 N13       29.94R
$$

NVZ020-UTZ003-290400-
SOUTHERN NEVADA-UTAH

CITY           SKY/WX    TMP DP  RH WIND       PRES   REMARKS
LAS VEGAS      PTCLDY    68  15  13 N9        30.02R
SALT LAKE CITY PTCLDY    48  33  56 NW10      30.19R
$$

NMZ009-TXZ055-290400-
NEW MEXICO-WEST TEXAS

CITY           SKY/WX    TMP DP  RH WIND       PRES   REMARKS
ALBUQUERQUE    CLOUDY    45  36  70 W10       29.80F
EL PASO        PTCLDY    58  26  29 NW16G26   29.81S
$$


........................KEY........................
SKY/WX - SKY CONDITION/WEATHER
TMP    - TEMPERATURE IN FAHRENHEIT
DP     - DEW POINT IN FAHRENHEIT
RH     - RELATIVE HUMIDITY IN PERCENT
WIND   - DIRECTION AND SPEED IN MILES PER HOUR (MPH)
VRB    - VARIABLE WIND DIRECTION
PRES   - MEAN SEA LEVEL PRESSURE IN INCHES OF MERCURY
         F - FALLING PRESSURE   R - RISING PRESSURE
         S - STEADY PRESSURE
VSB    - VISIBILITY IN MILES
HX     - HEAT INDEX IN FAHRENHEIT
WCI    - WIND CHILL INDEX IN FAHRENHEIT
TC     - TEMPERATURE IN CELSIUS WHICH IS ALSO KNOWN AS
         TEMPERATURE IN CENTIGRADE
AFB    - AIR FORCE BASE
         LUKE AFB IS LUKE AIR FORCE BASE
         DAVIS-MONTHAN IS DAVIS-MONTHAN AIR FORCE BASE
NAS    - NAVAL AIR STATION
         EL CENTRO NAS IS EL CENTRO NAVAL AIR STATION
N/A    - NOT AVAILABLE





USA.gov is the U.S. government's official web portal to all federal, state and local government web resources and services.